Starlink 32267

operational
NORAD ID: 60363 Int'l Des: 2024-138 Owner: SPXS Country: US Constellation: starlink
LEOCIRCULAR

Starlink 32267について

説明を読み込み中...

リアルタイム位置

3D地球を読み込み中...

次回通過

高度履歴

Altitude vs Time

uPlot chart will show altitude changes over time

軌道要素

1 60363U 24138J 25307.03719249 -.00000468 00000-0 -36807-5 0 9997
2 60363 53.1591 178.0953 0001312 91.7932 268.3219 15.30195998 71239
Epoch: Nov 3, 2025 • Age: 37 hours

現在のステータス

高度 494.0 km
速度 7.62 km/s
衛星直下点 -51.66°S, 156.22°W
打ち上げ日 Aug 4, 2024
運用期間 1.2 years
タイプ internet

技術仕様

分類 Payload
質量 730.00 kg
乾燥質量 700.00 kg
総質量 730.00 kg
長さ 0.30 m
直径 4.10 m
スパン 29.00 m
形状 Box + pan
製造者 SPXS
バスタイプ Starlink V2M
フェーズステータス In Orbit
所有者/国 SPXS/US

大規模コンステレーション

Loading constellations...